Location: *
(35.8942°N, 23.3025°E)
Time: 17:26:37
(UTC+00:00)

Gurwin Techsat 1B - Pass Details

Date: 03 April 2023
Orbit: 811 x 813 km, 98.9° (Epoch: 03 June)

Event Time Altitude Azimuth Distance (km) Brightness Sun altitude
Rises 02:57:59 0° 348° (NNW) 3,343 11.9 -15.3°
Reaches altitude 10° 03:02:13 10° 316° (NW) 2,406 10.8 -14.4°
Maximum altitude 03:03:42 11° 299° (WNW) 2,323 10.6 -14.2°
Enters shadow 03:04:07 11° 295° (WNW) 2,329 10.6 -14.1°
